| time (UTC) | temp F | wind direction | speed knots | gust knots | rain 1hr in | rain 24hr in | rain mn in | humidity % | barometer mb |
| 20260506233003 | 65 | 153 | 5.2 | 12.2 | 0.00 | 0.00 | 0.00 | 69 | 1015.7 |
| 20260506231501 | 64 | 184 | 6.1 | 12.2 | 0.00 | 0.00 | 0.00 | 72 | 1015.8 |
| 20260506230058 | 65 | 194 | 6.1 | 11.3 | 0.00 | 0.00 | 0.00 | 72 | 1016.0 |
| 20260506224557 | 65 | 207 | 6.1 | 10.4 | 0.00 | 0.00 | 0.00 | 71 | 1016.3 |
| 20260506223055 | 65 | 161 | 6.1 | 10.4 | 0.00 | 0.00 | 0.00 | 73 | 1016.5 |
| 20260506221554 | 65 | 178 | 6.1 | 12.2 | 0.00 | 0.00 | 0.00 | 74 | 1016.8 |
| 20260506220059 | 65 | 199 | 5.2 | 11.3 | 0.00 | 0.00 | 0.00 | 74 | 1017.1 |
| 20260506214552 | 65 | 211 | 5.2 | 11.3 | 0.00 | 0.00 | 0.00 | 73 | 1017.3 |
| 20260506213055 | 66 | 157 | 6.1 | 12.2 | 0.00 | 0.00 | 0.00 | 73 | 1017.3 |
| 20260506211550 | 66 | 186 | 5.2 | 10.4 | 0.00 | 0.00 | 0.00 | 73 | 1017.4 |
| 20260506210059 | 66 | 190 | 5.2 | 9.6 | 0.00 | 0.00 | 0.00 | 72 | 1017.5 |
| 20260506204551 | 66 | 141 | 6.1 | 9.6 | 0.00 | 0.00 | 0.00 | 71 | 1017.7 |
| 20260506203137 | 66 | 170 | 4.3 | 9.6 | 0.00 | 0.00 | 0.00 | 72 | 1017.6 |
| 20260506201648 | 66 | 182 | 6.1 | 8.7 | 0.00 | 0.00 | 0.00 | 72 | 1017.8 |
| 20260506200050 | 66 | 253 | 5.2 | 8.7 | 0.00 | 0.00 | 0.00 | 71 | 1017.9 |
| 20260506194548 | 66 | 164 | 5.2 | 8.7 | 0.00 | 0.00 | 0.00 | 70 | 1018.1 |
| 20260506193044 | 67 | 135 | 4.3 | 9.6 | 0.00 | 0.00 | 0.00 | 71 | 1018.1 |
| 20260506191545 | 65 | 157 | 4.3 | 8.7 | 0.00 | 0.00 | 0.00 | 73 | 1018.2 |
| 20260506190048 | 66 | 173 | 4.3 | 8.7 | 0.00 | 0.00 | 0.00 | 72 | 1018.2 |
| 20260506184552 | 65 | 198 | 4.3 | 10.4 | 0.00 | 0.00 | 0.00 | 74 | 1018.4 |
| 20260506183039 | 65 | 191 | 4.3 | 10.4 | 0.00 | 0.00 | 0.00 | 73 | 1018.3 |
| 20260506181539 | 65 | 196 | 5.2 | 8.7 | 0.00 | 0.00 | 0.00 | 74 | 1018.5 |
| 20260506180039 | 65 | 165 | 6.1 | 9.6 | 0.00 | 0.00 | 0.00 | 73 | 1018.5 |
| 20260506174538 | 65 | 198 | 4.3 | 9.6 | 0.00 | 0.00 | 0.00 | 72 | 1018.5 |
| 20260506173047 | 66 | 123 | 4.3 | 7.0 | 0.00 | 0.00 | 0.00 | 71 | 1018.4 |
| 20260506171536 | 65 | 142 | 1.7 | 7.8 | 0.00 | 0.00 | 0.00 | 71 | 1018.4 |
| 20260506170033 | 65 | 192 | 3.5 | 7.8 | 0.00 | 0.00 | 0.00 | 71 | 1018.3 |
| 20260506164531 | 65 | 149 | 1.7 | 7.0 | 0.00 | 0.00 | 0.00 | 72 | 1018.3 |
| 20260506163045 | 64 | 161 | 2.6 | 7.0 | 0.00 | 0.00 | 0.00 | 72 | 1018.3 |
| 20260506161528 | 64 | 142 | 1.7 | 6.1 | 0.00 | 0.00 | 0.00 | 73 | 1018.3 |
| 20260506160025 | 63 | 157 | 3.5 | 6.1 | 0.00 | 0.00 | 0.00 | 73 | 1018.3 |
| 20260506154531 | 62 | 51 | 0.9 | 3.5 | 0.00 | 0.00 | 0.00 | 73 | 1018.2 |
| 20260506153018 | 61 | 177 | 0.0 | 4.3 | 0.00 | 0.00 | 0.00 | 75 | 1018.3 |
| 20260506151515 | 60 | 50 | 0.0 | 4.3 | 0.00 | 0.00 | 0.00 | 76 | 1018.2 |
| 20260506150011 | 59 | 58 | 2.6 | 5.2 | 0.00 | 0.00 | 0.00 | 78 | 1018.2 |
| 20260506144506 | 57 | 39 | 2.6 | 5.2 | 0.00 | 0.00 | 0.00 | 81 | 1018.1 |
| 20260506143003 | 56 | 5 | 3.5 | 5.2 | 0.00 | 0.00 | 0.00 | 85 | 1017.9 |
| 20260506141501 | 54 | 31 | 1.7 | 3.5 | 0.00 | 0.00 | 0.00 | 88 | 1017.9 |
| 20260506134559 | 52 | 9 | 0.9 | 1.7 | 0.00 | 0.00 | 0.00 | 89 | 1017.7 |
| 20260506133058 | 52 | 326 | 0.0 | 1.7 | 0.00 | 0.00 | 0.00 | 88 | 1017.6 |
| 20260506131607 | 52 | 360 | 0.0 | 0.0 | 0.00 | 0.00 | 0.00 | 87 | 1017.6 |
| 20260506130056 | 52 | 45 | 0.0 | 0.0 | 0.00 | 0.00 | 0.00 | 87 | 1017.4 |
| 20260506124556 | 53 | 155 | 0.0 | 0.0 | 0.00 | 0.00 | 0.00 | 87 | 1017.3 |
| 20260506123057 | 53 | 161 | 0.0 | 0.0 | 0.00 | 0.00 | 0.00 | 87 | 1017.3 |
| 20260506121604 | 53 | 227 | 0.0 | 0.0 | 0.00 | 0.00 | 0.00 | 87 | 1017.1 |
| 20260506120048 | 53 | 355 | 0.0 | 0.0 | 0.00 | 0.00 | 0.00 | 87 | 1016.9 |
| 20260506114546 | 54 | 355 | 0.0 | 0.9 | 0.00 | 0.00 | 0.00 | 87 | 1016.8 |
| 20260506113047 | 54 | 355 | 0.9 | 2.6 | 0.00 | 0.00 | 0.00 | 87 | 1016.8 |
| 20260506111545 | 54 | 11 | 0.0 | 2.6 | 0.00 | 0.00 | 0.00 | 87 | 1016.7 |
| 20260506110044 | 54 | 40 | 1.7 | 2.6 | 0.00 | 0.00 | 0.00 | 87 | 1016.7 |
| 20260506104547 | 54 | 13 | 0.9 | 2.6 | 0.00 | 0.00 | 0.00 | 87 | 1016.7 |
| 20260506103043 | 54 | 5 | 0.0 | 2.6 | 0.00 | 0.00 | 0.00 | 87 | 1016.7 |
| 20260506101542 | 54 | 338 | 0.9 | 2.6 | 0.00 | 0.00 | 0.00 | 87 | 1016.6 |
| 20260506100040 | 54 | 27 | 0.9 | 2.6 | 0.00 | 0.00 | 0.00 | 87 | 1016.7 |
| 20260506094539 | 54 | 5 | 0.9 | 3.5 | 0.00 | 0.00 | 0.00 | 87 | 1016.7 |
| 20260506093037 | 55 | 38 | 0.0 | 0.0 | 0.00 | 0.00 | 0.00 | 86 | 1016.9 |
| 20260506091536 | 55 | 9 | 0.0 | 1.7 | 0.00 | 0.00 | 0.00 | 87 | 1017.0 |
| 20260506090034 | 55 | 5 | 0.9 | 3.5 | 0.00 | 0.00 | 0.00 | 87 | 1017.0 |
| 20260506084542 | 55 | 24 | 1.7 | 7.8 | 0.00 | 0.00 | 0.00 | 87 | 1017.1 |
| 20260506083033 | 55 | 34 | 1.7 | 5.2 | 0.00 | 0.00 | 0.00 | 87 | 1017.1 |
| 20260506081532 | 56 | 37 | 3.5 | 7.0 | 0.00 | 0.00 | 0.00 | 87 | 1017.1 |
| 20260506073025 | 55 | 9 | 3.5 | 7.0 | 0.00 | 0.00 | 0.00 | 87 | 1017.0 |
| 20260506071522 | 55 | 9 | 2.6 | 7.0 | 0.00 | 0.00 | 0.00 | 87 | 1016.9 |
| 20260506061515 | 56 | 17 | 2.6 | 4.3 | 0.00 | 0.00 | 0.00 | 87 | 1016.3 |
| 20260506060116 | 56 | 26 | 2.6 | 6.1 | 0.00 | 0.00 | 0.00 | 87 | 1016.2 |
| 20260506044513 | 57 | 355 | 2.6 | 4.3 | 0.00 | 0.00 | 0.00 | 86 | 1015.6 |
| 20260506043004 | 57 | 29 | 1.7 | 3.5 | 0.00 | 0.00 | 0.00 | 86 | 1015.5 |
| 20260506041504 | 58 | 62 | 0.9 | 3.5 | 0.00 | 0.00 | 0.00 | 85 | 1015.4 |
| 20260506040001 | 58 | 72 | 1.7 | 3.5 | 0.00 | 0.00 | 0.00 | 85 | 1015.0 |
| 20260506034602 | 58 | 21 | 0.9 | 1.7 | 0.00 | 0.00 | 0.00 | 83 | 1014.8 |
| 20260506033058 | 59 | 77 | 0.0 | 2.6 | 0.00 | 0.00 | 0.00 | 82 | 1014.6 |
| 20260506031558 | 59 | 130 | 2.6 | 5.2 | 0.00 | 0.00 | 0.00 | 80 | 1014.4 |
| 20260506030058 | 60 | 105 | 2.6 | 4.3 | 0.00 | 0.00 | 0.00 | 77 | 1014.2 |
| 20260506024607 | 60 | 200 | 0.0 | 2.6 | 0.00 | 0.00 | 0.00 | 77 | 1013.9 |
| 20260506023110 | 61 | 152 | 1.7 | 7.0 | 0.00 | 0.00 | 0.00 | 76 | 1013.6 |
| 20260506021556 | 61 | 178 | 1.7 | 5.2 | 0.00 | 0.00 | 0.00 | 75 | 1013.6 |
| 20260506020057 | 62 | 206 | 2.6 | 6.1 | 0.00 | 0.00 | 0.00 | 75 | 1013.5 |
| 20260506014554 | 62 | 156 | 2.6 | 6.1 | 0.00 | 0.00 | 0.00 | 74 | 1013.4 |
| 20260506013057 | 63 | 173 | 2.6 | 6.1 | 0.00 | 0.00 | 0.00 | 75 | 1013.4 |
| 20260506011552 | 63 | 166 | 3.5 | 7.8 | 0.00 | 0.00 | 0.00 | 76 | 1013.5 |
| 20260506010051 | 62 | 184 | 2.6 | 9.6 | 0.00 | 0.00 | 0.00 | 76 | 1013.5 |
| 20260506004552 | 62 | 186 | 3.5 | 9.6 | 0.00 | 0.00 | 0.00 | 77 | 1013.5 |
| 20260506003051 | 62 | 221 | 6.1 | 10.4 | 0.00 | 0.00 | 0.00 | 77 | 1013.5 |
| 20260506001555 | 61 | 148 | 3.5 | 9.6 | 0.00 | 0.00 | 0.00 | 76 | 1013.5 |
| 20260506000054 | 62 | 168 | 7.0 | 13.0 | 0.00 | 0.00 | 0.00 | 75 | 1013.5 |
| 20260505234546 | 63 | 173 | 5.2 | 9.6 | 0.00 | 0.00 | 0.00 | 75 | 1013.5 |
| 20260505233051 | 63 | 176 | 5.2 | 11.3 | 0.00 | 0.00 | 0.00 | 75 | 1013.4 |